Flag for Norway Weather past 2 weeks in Knarrevik/Straume, Norway

Now
33 °F

Overcast.


Feels Like: 33 °F
Forecast: 38 / 44 °F
Wind: 2 mph from Southeast

Location: Bergen / Flesland

Current Time: Jan 27, 2015 at 6:51:38 AM

Latest Report: Jan 27, 2015 at 6:00 AM


Visibility: 12 mi

Pressure: 29.91 "Hg

Humidity: 96%

Dew point: 32 °F

Location of Knarrevik/StraumeLocation

Historic Weather in Knarrevik/Straume — Graph

°F

Knarrevik/Straume temperature yesterday

Maximum temperature yesterday: 45 °F (at 2:00 AM)
Minimum temperature yesterday: 33 °F (at 9:00 PM)
Average temperature yesterday: 40 °F

Past Weeks' High & Low Weather Summary

 TemperatureHumidityPressure
High46 °F (Jan 12, 12:00 PM)98% (Jan 27, 2:00 AM)30.24 "Hg (Jan 27, 2:00 AM)
Low25 °F (Jan 22, 9:00 AM)48% (Jan 21, 2:00 PM)28.53 "Hg (Jan 16, 4:00 AM)
Average36 °F80%29.56 "Hg
* Reported Jan 12 5:00 AM — Jan 27 5:00 AM, Knarrevik/Straume, Weather by CustomWeather, © 2014

Note: Actual official high and low records may vary slightly from our data, if they occured in-between our weather recording intervals... More about our weather records

Advertising

Knarrevik/Straume weather history for previous 24 hours

 ConditionsComfort  
Time TempWeatherWind HumidityBarometerVisibility
5:00 AM
Jan 27
33 °FOvercast.2 mph97%29.92 "Hg14 mi
3:00 AM31 °FPassing clouds.1 mph98%29.92 "Hg8 mi
2:00 AM32 °FClear.1 mph98%29.91 "Hg6 mi
1:00 AM32 °FClear.2 mph97%29.90 "Hg6 mi
12:00 AM33 °FPassing clouds.2 mph97%29.89 "Hg11 mi
11:00 PM
Jan 26
33 °FPassing clouds.1 mph97%29.88 "Hg7 mi
9:00 PM33 °FPassing clouds.No wind96%29.83 "Hg9 mi
8:00 PM35 °FPassing clouds.1 mph94%29.80 "Hg14 mi
7:00 PM36 °FPassing clouds.2 mph94%29.77 "Hg14 mi
6:00 PM35 °FPassing clouds.1 mph94%29.75 "Hg13 mi
5:00 PM37 °FRain. Light fog.2 mph90%29.72 "Hg7 mi
4:00 PM37 °FPartly sunny.2 mph92%29.70 "Hg12 mi
3:00 PM38 °FPassing clouds.2 mph87%29.70 "Hg17 mi
2:00 PM41 °FScattered clouds.3 mph73%29.69 "Hg19 mi
1:00 PM42 °FSprinkles. Scattered clouds.5 mph80%29.69 "Hg7 mi
12:00 PM41 °FOvercast.5 mph85%29.70 "Hg17 mi
11:00 AM40 °FRain showers. Overcast.3 mph88%29.69 "Hg7 mi
10:00 AM40 °FSprinkles. Overcast.2 mph84%29.70 "Hg12 mi
9:00 AM40 °FRain showers. Overcast.2 mph81%29.70 "Hg11 mi
8:00 AM41 °FOvercast.7 mph81%29.71 "Hg16 mi
7:00 AM43 °FOvercast.3 mph85%29.71 "Hg6 mi
6:00 AM43 °FPassing clouds.3 mph89%29.72 "Hg7 mi
Weather by CustomWeather, © 2014

See weather overviewHow to use our weather pages